Date String (YYYY-MM-DD hh:mm:ss) UTC,Instrument flags,Ambient pressure (hPa),Sample flow (lpm),Bypass flow (lpm),Sample temperature (°C),Ambient temperature (°C),ASC tube jacket temperature (°C),LED temperature (°C),Box temperature (°C),Sample RH (%),Span deviation,Mass concentration (μg/m³),Mass concentration (μg/m³),Mass concentration (μg/m³)
DateTimeUTC,F1_M11,P_M11,Q1_M11,Q2_M11,T1_M11,T2_M11,T3_M11,T4_M11,T5_M11,U1_M11,ZSPAN_M11,X0_M11,X2_M11,X1_M11
2022-06-30 13:00:00,,0828.2,5.01,0.00,29.8,27.9,00.0,38.6,31.5,20.3,0000.0,0003.70,0002.12,0001.65
2022-06-30 13:01:00,,0828.3,4.99,0.00,29.8,27.9,00.0,38.6,31.5,20.2,0000.0,0003.76,0002.16,0001.65
2022-06-30 13:02:00,,0828.1,5.00,0.00,29.7,28.0,00.0,38.6,31.5,20.2,0000.0,0003.77,0002.18,0001.65
2022-06-30 13:03:00,,0828.2,5.01,0.00,29.7,28.1,00.0,38.6,31.5,20.2,0000.0,0003.86,0002.22,0001.65
2022-06-30 13:04:00,,0828.2,5.01,0.00,29.7,28.2,00.0,38.6,31.5,20.1,0000.0,0003.55,0002.22,0001.65
2022-06-30 13:05:00,,0828.2,5.01,0.00,29.7,28.7,00.0,38.5,31.6,20.0,0000.0,0003.53,0002.25,0001.66
2022-06-30 13:06:00,,0828.2,4.98,0.00,29.7,28.8,00.0,38.5,31.6,20.0,0000.0,0003.64,0002.25,0001.65
2022-06-30 13:07:00,,0828.2,5.00,0.00,29.8,28.8,00.0,38.5,31.7,20.1,0000.0,0003.75,0002.25,0001.65
2022-06-30 13:08:00,,0828.2,5.00,0.00,29.8,28.8,00.0,38.5,31.7,20.0,0000.0,0004.13,0002.30,0001.65
2022-06-30 13:09:00,,0828.2,5.00,0.00,29.8,28.8,00.0,38.5,31.7,20.1,0000.0,0004.06,0002.29,0001.66
2022-06-30 13:10:00,,0828.3,5.00,0.00,29.8,28.9,00.0,38.6,31.8,20.3,0000.0,0003.76,0002.21,0001.65
2022-06-30 13:11:00,,0828.2,5.00,0.00,29.8,29.0,00.0,38.6,31.8,22.1,0000.0,0003.58,0002.16,0001.65
2022-06-30 13:12:00,,0828.2,4.99,0.00,29.9,29.0,00.0,38.6,31.8,20.8,0000.0,0003.60,0002.16,0001.64
2022-06-30 13:13:00,,0828.2,5.00,0.00,29.9,29.1,00.0,38.6,31.8,20.0,0000.0,0004.13,0002.18,0001.64
2022-06-30 13:14:00,,0828.2,5.00,0.00,29.9,28.7,00.0,38.6,31.8,20.5,0000.0,0004.22,0002.15,0001.65
2022-06-30 13:15:00,,0828.3,5.02,0.00,29.8,28.1,00.0,38.5,31.6,21.7,0000.0,0004.16,0002.12,0001.65
2022-06-30 13:16:00,,0828.3,4.99,0.00,29.8,27.7,00.0,38.5,31.5,21.6,0000.0,0004.18,0002.13,0001.64
2022-06-30 13:17:00,,0828.2,5.00,0.00,29.7,27.7,00.0,38.5,31.4,23.4,0000.0,0004.16,0002.14,0001.65
2022-06-30 13:18:00,,0828.2,4.99,0.00,29.7,27.7,00.0,38.5,31.4,21.8,0000.0,0004.07,0002.15,0001.66
2022-06-30 13:19:00,,0828.3,5.00,0.00,29.7,27.8,00.0,38.5,31.4,22.6,0000.0,0003.69,0002.10,0001.66
2022-06-30 13:20:00,,0828.3,5.00,0.00,29.7,28.0,00.0,38.5,31.5,22.8,0000.0,0003.63,0002.06,0001.65
2022-06-30 13:21:00,,0828.2,5.01,0.00,29.7,28.1,00.0,38.5,31.5,21.7,0000.0,0003.64,0002.07,0001.65
2022-06-30 13:22:00,,0828.3,5.01,0.00,29.7,28.3,00.0,38.5,31.6,21.8,0000.0,0003.68,0002.08,0001.64
2022-06-30 13:23:00,,0828.3,5.00,0.00,29.7,28.4,00.0,38.5,31.6,21.8,0000.0,0003.78,0002.09,0001.64
2022-06-30 13:24:00,,0828.3,4.98,0.00,29.7,28.6,00.0,38.5,31.7,22.4,0000.0,0003.30,0002.11,0001.65
2022-06-30 13:25:00,,0828.3,5.00,0.00,29.8,28.7,00.0,38.5,31.7,22.8,0000.0,0003.30,0002.16,0001.66
2022-06-30 13:26:00,,0828.3,5.01,0.00,29.8,28.8,00.0,38.6,31.8,22.4,0000.0,0003.30,0002.16,0001.67
2022-06-30 13:27:00,,0828.3,5.01,0.00,29.9,28.9,00.0,38.6,31.8,21.8,0000.0,0003.55,0002.20,0001.68
2022-06-30 13:28:00,,0828.3,5.00,0.00,29.9,29.0,00.0,38.6,31.9,24.3,0000.0,0003.61,0002.26,0001.68
2022-06-30 13:29:00,,0828.5,5.00,0.00,29.9,29.1,00.0,38.6,31.9,25.8,0000.0,0003.65,0002.29,0001.68
2022-06-30 13:30:00,,0828.7,5.00,0.00,30.0,29.2,00.0,38.7,32.0,25.8,0000.0,0003.79,0002.33,0001.70
2022-06-30 13:31:00,,0829.0,5.00,0.00,30.0,29.2,00.0,38.7,32.0,25.5,0000.0,0003.93,0002.37,0001.72
2022-06-30 13:32:00,,0828.5,5.00,0.00,30.0,29.2,00.0,38.7,32.0,22.9,0000.0,0003.98,0002.40,0001.73
2022-06-30 13:33:00,,0828.5,5.01,0.00,30.0,28.7,00.0,38.6,32.0,21.4,0000.0,0004.03,0002.39,0001.75
2022-06-30 13:34:00,,0828.5,5.00,0.00,30.0,28.1,00.0,38.6,31.8,20.8,0000.0,0003.99,0002.39,0001.77
2022-06-30 13:35:00,,0828.6,4.99,0.00,29.9,28.0,00.0,38.6,31.7,21.6,0000.0,0004.13,0002.38,0001.76
2022-06-30 13:36:00,,0828.5,5.00,0.00,29.9,28.0,00.0,38.6,31.7,22.0,0000.0,0004.22,0002.43,0001.78
2022-06-30 13:37:00,,0828.5,5.00,0.00,29.9,28.1,00.0,38.6,31.7,21.8,0000.0,0004.34,0002.49,0001.80
2022-06-30 13:38:00,,0828.6,5.00,0.00,29.8,28.2,00.0,38.6,31.7,21.4,0000.0,0004.10,0002.47,0001.81
2022-06-30 13:39:00,,0828.8,5.00,0.00,29.9,28.3,00.0,38.6,31.8,22.3,0000.0,0003.99,0002.42,0001.81
2022-06-30 13:40:00,,0828.6,5.00,0.00,29.9,28.5,00.0,38.6,31.8,22.5,0000.0,0003.92,0002.42,0001.81
2022-06-30 13:41:00,,0828.8,5.00,0.00,29.9,28.6,00.0,38.6,31.8,22.7,0000.0,0003.86,0002.41,0001.81
2022-06-30 13:42:00,,0828.5,5.00,0.00,29.9,28.7,00.0,38.6,31.8,22.1,0000.0,0003.90,0002.44,0001.81
2022-06-30 13:43:00,,0828.5,4.99,0.00,29.9,28.8,00.0,38.6,31.9,22.7,0000.0,0003.93,0002.46,0001.81
2022-06-30 13:44:00,,0829.1,4.99,0.00,29.9,28.9,00.0,38.6,31.9,22.6,0000.0,0003.93,0002.48,0001.82
2022-06-30 13:45:00,,0828.8,5.00,0.00,30.0,29.0,00.0,38.7,32.0,23.4,0000.0,0003.86,0002.45,0001.83
2022-06-30 13:46:00,,0828.7,5.00,0.00,30.0,29.1,00.0,38.7,32.0,28.5,0000.0,0003.87,0002.51,0001.88
2022-06-30 13:47:00,,0828.7,5.00,0.00,30.0,29.2,00.0,38.7,32.0,29.7,0000.0,0004.97,0002.66,0002.00
2022-06-30 13:48:00,,0828.8,4.99,0.00,30.1,29.2,00.0,38.7,32.0,28.7,0000.0,0006.37,0002.78,0002.09
2022-06-30 13:49:00,,0828.5,4.99,0.00,30.1,28.6,00.0,38.7,32.0,26.4,0000.0,0007.26,0002.86,0002.17
2022-06-30 13:50:00,,0828.5,4.99,0.00,30.0,27.9,00.0,38.7,31.8,26.1,0000.0,0007.44,0002.94,0002.23
2022-06-30 13:51:00,,0828.5,5.01,0.00,30.0,27.6,00.0,38.6,31.7,25.6,0000.0,0007.73,0003.06,0002.30
2022-06-30 13:52:00,,0828.5,4.99,0.00,29.9,27.7,00.0,38.6,31.6,26.7,0000.0,0007.93,0003.09,0002.35
2022-06-30 13:53:00,,0828.4,4.99,0.00,29.9,27.8,00.0,38.6,31.6,25.3,0000.0,0007.93,0003.12,0002.38
2022-06-30 13:54:00,,0828.4,5.01,0.00,29.8,27.9,00.0,38.6,31.6,25.6,0000.0,0008.01,0003.15,0002.44
2022-06-30 13:55:00,,0828.5,5.00,0.00,29.8,28.1,00.0,38.6,31.7,25.2,0000.0,0008.10,0003.18,0002.48
2022-06-30 13:56:00,,0828.5,4.98,0.00,29.8,28.2,00.0,38.6,31.7,26.2,0000.0,0008.23,0003.24,0002.52
2022-06-30 13:57:00,,0828.5,5.00,0.00,29.8,28.4,00.0,38.6,31.7,27.9,0000.0,0008.68,0003.31,0002.56
2022-06-30 13:58:00,,0828.5,5.01,0.00,29.8,28.5,00.0,38.6,31.8,28.8,0000.0,0008.96,0003.29,0002.54
2022-06-30 13:59:00,,0828.5,5.00,0.00,29.9,28.6,00.0,38.6,31.8,27.3,0000.0,0009.01,0003.28,0002.50
